Location: Poughquag
(41.6090°N, 73.6820°W)
Time: 09:27:17
(UTC-05:00)

SR - Pass Details

Date: 16 December 2023
Orbit: 574 x 868 km, 66.7° (Epoch: 25 February)

Event Time Altitude Azimuth Distance (km) Brightness Sun altitude
Rises 17:39:48 0° 327° (NNW) 3,428 ? -13.4°
Reaches altitude 10° 17:42:21 10° 325° (NW) 2,463 ? -13.8°
Maximum altitude 17:48:00 67° 244° (WSW) 870 ? -14.8°
Drops below altitude 10° 17:53:13 10° 163° (SSE) 2,281 ? -15.7°
Sets 17:55:31 0° 160° (SSE) 3,156 ? -16.2°
